Time,Snow Cover Fraction,Confidence
2023-08-01T05:15:01,0,99.91
2023-08-01T05:45:05,0,99.98
2023-08-01T06:15:01,0,100.0
2023-08-01T06:45:01,0,100.0
2023-08-01T07:15:01,0,100.0
2023-08-01T07:45:01,0,100.0
2023-08-01T08:15:01,0,100.0
2023-08-01T08:45:01,0,100.0
2023-08-01T09:15:01,0,100.0
2023-08-01T09:45:01,0,100.0
2023-08-01T10:15:01,0,100.0
2023-08-01T10:45:01,0,100.0
2023-08-01T11:15:01,0,100.0
2023-08-01T11:45:01,0,100.0
2023-08-01T12:15:01,0,100.0
2023-08-01T12:45:01,0,100.0
2023-08-01T13:15:01,0,100.0
2023-08-01T13:45:01,0,100.0
2023-08-01T14:15:01,0,100.0
2023-08-01T14:45:01,0,100.0
2023-08-01T15:15:01,0,100.0
2023-08-01T15:45:01,0,100.0
2023-08-01T16:15:01,0,100.0
2023-08-01T16:45:01,0,100.0
2023-08-01T17:15:01,0,100.0
2023-08-01T17:45:01,0,100.0
2023-08-01T18:15:01,0,100.0
2023-08-01T18:45:01,0,100.0
2023-08-02T05:15:01,0,100.0
2023-08-02T05:45:01,0,100.0
2023-08-02T06:15:02,0,100.0
2023-08-02T06:45:01,0,100.0
2023-08-02T07:15:01,0,100.0
2023-08-02T07:45:01,0,100.0
2023-08-02T08:15:01,0,100.0
2023-08-02T08:45:01,0,100.0
2023-08-02T09:15:01,0,100.0
2023-08-02T09:45:01,0,100.0
2023-08-02T10:15:01,0,100.0
2023-08-02T10:45:01,0,100.0
2023-08-02T11:15:01,0,100.0
2023-08-02T11:45:01,0,100.0
2023-08-02T12:15:01,0,100.0
2023-08-02T12:45:01,0,100.0
2023-08-02T13:15:01,0,100.0
2023-08-02T13:45:01,0,100.0
2023-08-02T14:15:01,0,100.0
2023-08-02T14:45:01,0,100.0
2023-08-02T15:15:01,0,100.0
2023-08-02T15:45:01,0,100.0
2023-08-02T16:15:01,0,100.0
2023-08-02T16:45:01,0,100.0
2023-08-02T17:15:01,0,100.0
2023-08-02T17:45:01,0,100.0
2023-08-02T18:15:01,0,100.0
2023-08-02T18:45:01,0,100.0
2023-08-03T05:15:01,0,99.99
2023-08-03T05:45:01,0,100.0
2023-08-03T06:15:01,0,100.0
2023-08-03T06:45:01,0,100.0
2023-08-03T07:15:01,0,100.0
2023-08-03T07:45:01,0,100.0
2023-08-03T08:15:01,0,100.0
2023-08-03T08:45:01,0,100.0
2023-08-03T09:15:05,0,100.0
2023-08-03T09:45:01,0,100.0
2023-08-03T10:15:01,0,100.0
2023-08-03T10:45:01,0,100.0
2023-08-03T11:15:01,0,100.0
2023-08-03T11:45:01,0,100.0
2023-08-03T12:15:01,0,100.0
2023-08-03T12:45:01,0,100.0
2023-08-03T13:15:01,0,100.0
2023-08-03T13:45:01,0,100.0
2023-08-03T14:15:02,0,100.0
2023-08-03T14:45:01,0,100.0
2023-08-03T15:15:01,0,100.0
2023-08-03T15:45:01,0,100.0
2023-08-03T16:15:01,0,100.0
2023-08-03T16:45:01,0,100.0
2023-08-03T17:15:01,0,100.0
2023-08-03T17:45:01,0,100.0
2023-08-03T18:15:01,0,100.0
2023-08-03T18:45:01,0,100.0
2023-08-04T05:15:01,0,100.0
2023-08-04T05:45:01,0,100.0
2023-08-04T06:15:01,0,100.0
2023-08-04T06:45:01,0,100.0
2023-08-04T07:15:01,0,100.0
2023-08-04T07:45:01,0,100.0
2023-08-04T08:15:01,0,100.0
2023-08-04T08:45:01,0,100.0
2023-08-04T09:15:01,0,100.0
2023-08-04T09:45:01,0,100.0
2023-08-04T10:15:01,0,100.0
2023-08-04T10:45:01,0,100.0
2023-08-04T11:15:01,0,100.0
2023-08-04T11:45:01,0,100.0
2023-08-04T12:15:01,0,100.0
2023-08-04T12:45:01,0,100.0
2023-08-04T13:15:01,0,100.0
2023-08-04T13:45:01,0,100.0
2023-08-04T14:15:05,0,100.0
2023-08-04T14:45:01,0,100.0
2023-08-04T15:15:01,0,100.0
2023-08-04T15:45:01,0,100.0
2023-08-04T16:15:01,0,100.0
2023-08-04T16:45:01,0,100.0
2023-08-04T17:15:01,0,100.0
2023-08-04T17:45:01,0,100.0
2023-08-04T18:15:01,0,100.0
2023-08-04T18:45:01,0,100.0
2023-08-05T05:15:01,0,100.0
2023-08-05T05:45:01,0,100.0
2023-08-05T06:15:01,0,100.0
2023-08-05T06:45:01,0,100.0
2023-08-05T07:15:01,0,100.0
2023-08-05T07:45:01,0,100.0
2023-08-05T08:15:01,0,100.0
2023-08-05T08:45:04,0,100.0
2023-08-05T09:15:01,0,100.0
2023-08-05T09:45:01,0,100.0
2023-08-05T10:15:01,0,100.0
2023-08-05T10:45:01,0,100.0
2023-08-05T11:15:01,0,100.0
2023-08-05T11:45:01,0,100.0
2023-08-05T12:15:01,0,100.0
2023-08-05T12:45:01,0,100.0
2023-08-05T13:15:01,0,100.0
2023-08-05T13:45:01,0,100.0
2023-08-05T14:15:01,0,100.0
2023-08-05T14:45:01,0,100.0
2023-08-05T15:15:06,0,100.0
2023-08-05T15:45:01,0,100.0
2023-08-05T16:15:01,0,100.0
2023-08-05T16:45:01,0,100.0
2023-08-05T17:15:01,0,100.0
2023-08-05T17:45:00,0,100.0
2023-08-05T18:15:01,0,100.0
2023-08-05T18:45:01,0,100.0
2023-08-06T05:15:01,0,100.0
2023-08-06T05:45:03,0,100.0
2023-08-06T06:15:01,0,100.0
2023-08-06T06:45:01,0,100.0
2023-08-06T07:15:05,0,100.0
2023-08-06T07:45:01,0,100.0
2023-08-06T08:15:01,0,100.0
2023-08-06T08:45:01,0,100.0
2023-08-06T09:15:01,0,100.0
2023-08-06T09:45:01,0,100.0
2023-08-06T10:15:01,0,100.0
2023-08-06T10:45:01,0,100.0
2023-08-06T11:15:01,0,100.0
2023-08-06T11:45:01,0,100.0
2023-08-06T12:15:01,0,100.0
2023-08-06T12:45:01,0,100.0
2023-08-06T13:15:01,0,100.0
2023-08-06T13:45:01,0,100.0
2023-08-06T14:15:01,0,100.0
2023-08-06T14:45:01,0,100.0
2023-08-06T15:15:01,0,100.0
2023-08-06T15:45:01,0,100.0
2023-08-06T16:15:01,0,100.0
2023-08-06T16:45:01,0,100.0
2023-08-06T17:15:01,0,100.0
2023-08-06T17:45:01,0,100.0
2023-08-06T18:15:01,0,100.0
2023-08-06T18:45:01,0,100.0
2023-08-07T05:15:05,0,100.0
2023-08-07T05:45:01,0,100.0
2023-08-07T06:15:01,0,100.0
2023-08-07T06:45:01,0,100.0
2023-08-07T07:15:01,0,100.0
2023-08-07T07:45:01,0,100.0
2023-08-07T08:15:04,0,100.0
2023-08-07T08:45:01,0,100.0
2023-08-07T09:15:01,0,100.0
2023-08-07T09:45:01,0,100.0
2023-08-07T10:15:01,0,100.0
2023-08-07T10:45:02,0,100.0
2023-08-07T11:15:01,0,100.0
2023-08-07T11:45:01,0,100.0
2023-08-07T12:15:03,0,100.0
2023-08-07T12:45:01,0,100.0
2023-08-07T13:15:01,0,100.0
2023-08-07T13:45:01,0,100.0
2023-08-07T14:15:06,0,100.0
2023-08-07T14:45:01,0,100.0
2023-08-07T15:15:01,0,100.0
2023-08-07T15:45:01,0,100.0
2023-08-07T16:15:01,0,100.0
2023-08-07T16:45:01,0,100.0
2023-08-07T17:15:01,0,100.0
2023-08-07T17:45:01,0,100.0
2023-08-07T18:15:01,0,100.0
2023-08-07T18:45:05,0,100.0
2023-08-08T05:15:01,0,100.0
2023-08-08T05:45:01,0,100.0
2023-08-08T06:15:01,0,100.0
2023-08-08T06:45:01,0,100.0
2023-08-08T07:15:01,0,100.0
2023-08-08T07:45:01,0,100.0
2023-08-08T08:15:01,0,100.0
2023-08-08T08:45:00,0,100.0
2023-08-08T09:15:01,0,100.0
2023-08-08T09:45:01,0,100.0
2023-08-08T10:15:01,0,100.0
2023-08-08T10:45:01,0,100.0
2023-08-08T11:15:01,0,100.0
2023-08-08T11:45:01,0,100.0
2023-08-08T12:15:01,0,100.0
2023-08-08T12:45:01,0,100.0
2023-08-08T13:15:01,0,100.0
2023-08-08T13:45:01,0,100.0
2023-08-08T14:15:01,0,100.0
2023-08-08T14:45:01,0,100.0
2023-08-08T15:15:01,0,100.0
2023-08-08T15:45:00,0,100.0
2023-08-08T16:15:01,0,100.0
2023-08-08T16:45:01,0,100.0
2023-08-08T17:15:01,0,100.0
2023-08-08T17:45:01,0,100.0
2023-08-08T18:15:01,0,100.0
2023-08-08T18:45:00,0,100.0
2023-08-09T05:15:01,0,99.87
2023-08-09T05:45:01,0,100.0
2023-08-09T06:15:01,0,99.96
2023-08-09T06:45:01,0,99.99
2023-08-09T07:15:01,0,99.99
2023-08-09T07:45:00,0,99.94
2023-08-09T08:15:05,0,99.99
2023-08-09T08:45:00,0,99.97
2023-08-09T09:15:09,0,99.98
2023-08-09T09:45:00,0,99.99
2023-08-09T10:15:01,0,99.99
2023-08-09T10:45:01,0,99.98
2023-08-09T11:15:01,0,99.97
2023-08-09T11:45:00,0,100.0
2023-08-09T12:15:01,0,100.0
2023-08-09T12:45:01,0,100.0
2023-08-09T13:15:01,0,100.0
2023-08-09T13:45:03,0,100.0
2023-08-09T14:15:01,0,100.0
2023-08-09T14:45:03,0,100.0
2023-08-09T15:15:01,0,100.0
2023-08-09T15:45:00,0,100.0
2023-08-09T16:15:01,0,100.0
2023-08-09T16:45:00,0,100.0
2023-08-09T17:15:01,0,100.0
2023-08-09T17:45:01,0,99.98
2023-08-09T18:15:01,0,100.0
2023-08-09T18:45:01,0,99.99
2023-08-10T05:15:09,0,99.89
2023-08-10T05:45:01,0,99.59
2023-08-10T06:15:01,0,99.85
2023-08-10T06:45:08,0,99.74
2023-08-10T07:15:01,0,99.65
2023-08-10T07:45:04,0,99.89
2023-08-10T08:15:01,0,99.91
2023-08-10T08:45:00,0,99.94
2023-08-10T09:15:01,0,99.92
2023-08-10T09:45:10,0,99.93
2023-08-10T10:15:01,0,99.98
2023-08-10T10:45:07,0,99.99
2023-08-10T11:15:01,0,99.99
2023-08-10T11:45:01,0,99.94
2023-08-10T12:15:04,0,99.94
2023-08-10T12:45:04,0,99.95
2023-08-10T13:15:01,0,99.93
2023-08-10T13:45:00,0,99.98
2023-08-10T14:15:03,0,100.0
2023-08-10T14:45:00,0,100.0
2023-08-10T15:15:08,0,100.0
2023-08-10T15:45:06,0,100.0
2023-08-10T16:15:01,0,100.0
2023-08-10T16:45:08,0,100.0
2023-08-10T17:15:04,0,100.0
2023-08-10T17:45:00,0,99.99
2023-08-10T18:15:01,0,99.98
2023-08-10T18:45:02,0,99.99
2023-08-11T05:15:04,0,99.89
2023-08-11T05:45:00,0,99.89
2023-08-11T06:15:01,0,99.94
2023-08-11T06:45:03,0,99.95
2023-08-11T07:15:05,0,99.94
2023-08-11T07:45:06,0,99.95
2023-08-11T08:15:03,0,99.97
2023-08-11T08:45:01,0,99.98
2023-08-11T09:15:04,0,99.99
2023-08-11T09:45:06,0,99.99
2023-08-11T10:15:04,0,100.0
2023-08-11T10:45:02,0,100.0
2023-08-11T11:15:06,0,100.0
2023-08-11T11:45:10,0,100.0
2023-08-11T12:15:10,0,100.0
2023-08-11T12:45:08,0,100.0
2023-08-11T13:15:01,0,100.0
2023-08-11T13:45:03,0,100.0
2023-08-11T14:15:02,0,100.0
2023-08-11T14:45:08,0,100.0
2023-08-11T15:15:05,0,100.0
2023-08-11T15:45:01,0,100.0
2023-08-11T16:15:01,0,100.0
2023-08-11T16:45:00,0,100.0
2023-08-11T17:15:01,0,100.0
2023-08-11T17:45:08,0,100.0
2023-08-11T18:15:03,0,100.0
2023-08-11T18:45:10,0,100.0
2023-08-12T05:15:04,0,99.61
2023-08-12T05:45:02,0,99.86
2023-08-12T06:15:02,0,99.97
2023-08-12T06:45:03,0,100.0
2023-08-12T07:15:09,0,100.0
2023-08-12T07:45:06,0,100.0
2023-08-12T08:15:01,0,100.0
2023-08-12T08:45:03,0,100.0
2023-08-12T09:15:01,0,100.0
2023-08-12T09:45:01,0,100.0
2023-08-12T10:15:08,0,100.0
2023-08-12T10:45:07,0,100.0
2023-08-12T11:15:04,0,100.0
2023-08-12T11:45:01,0,100.0
2023-08-12T12:15:03,0,100.0
2023-08-12T12:45:02,0,100.0
2023-08-12T13:15:04,0,100.0
2023-08-12T13:45:10,0,100.0
2023-08-12T14:15:04,0,100.0
2023-08-12T14:45:02,0,100.0
2023-08-12T15:15:10,0,100.0
2023-08-12T15:45:07,0,100.0
2023-08-12T16:15:01,0,100.0
2023-08-12T16:45:03,0,99.99
2023-08-12T17:15:10,0,100.0
2023-08-12T17:45:01,0,99.97
2023-08-12T18:15:07,0,99.97
2023-08-12T18:45:01,0,99.99
2023-08-13T05:15:10,0,99.86
2023-08-13T05:45:07,0,91.86
2023-08-13T06:15:09,0,99.99
2023-08-13T06:45:07,0,100.0
2023-08-13T07:15:02,0,100.0
2023-08-13T07:45:06,0,99.99
2023-08-13T08:15:04,0,100.0
2023-08-13T08:45:08,0,100.0
2023-08-13T09:15:06,0,100.0
2023-08-13T09:45:03,0,100.0
2023-08-13T10:15:04,0,100.0
2023-08-13T10:45:09,0,100.0
2023-08-13T11:15:10,0,100.0
2023-08-13T11:45:04,0,100.0
2023-08-13T12:15:01,0,100.0
2023-08-13T12:45:09,0,100.0
2023-08-13T13:15:09,0,100.0
2023-08-13T13:45:06,0,100.0
2023-08-13T14:15:04,0,100.0
2023-08-13T14:45:06,0,100.0
2023-08-13T15:15:01,0,100.0
2023-08-13T15:45:01,0,100.0
2023-08-13T16:15:05,0,100.0
2023-08-13T16:45:02,0,100.0
2023-08-13T17:15:07,0,100.0
2023-08-13T17:45:10,0,100.0
2023-08-13T18:15:01,0,100.0
2023-08-13T18:45:06,0,100.0
2023-08-14T05:15:06,0,100.0
2023-08-14T05:45:09,0,100.0
2023-08-14T06:15:01,0,100.0
2023-08-14T06:45:10,0,100.0
2023-08-14T07:15:02,0,100.0
2023-08-14T07:45:06,0,100.0
2023-08-14T08:15:02,0,100.0
2023-08-14T08:45:04,0,100.0
2023-08-14T09:15:06,0,100.0
2023-08-14T09:45:01,0,100.0
2023-08-14T10:15:09,0,100.0
2023-08-14T10:45:02,0,100.0
2023-08-14T11:15:05,0,100.0
2023-08-14T11:45:02,0,100.0
2023-08-14T12:15:10,0,100.0
2023-08-14T12:45:02,0,100.0
2023-08-14T13:15:04,0,100.0
2023-08-14T13:45:05,0,100.0
2023-08-14T14:15:06,0,100.0
2023-08-14T14:45:05,0,100.0
2023-08-14T15:15:07,0,100.0
2023-08-14T15:45:07,0,100.0
2023-08-14T16:15:04,0,100.0
2023-08-14T16:45:08,0,100.0
2023-08-14T17:15:01,0,100.0
2023-08-14T17:45:07,0,100.0
2023-08-14T18:15:05,0,100.0
2023-08-14T18:45:01,0,100.0
2023-08-15T05:15:03,0,100.0
2023-08-15T05:45:04,0,100.0
2023-08-15T06:15:08,0,100.0
2023-08-15T06:45:04,0,100.0
2023-08-15T07:15:10,0,100.0
2023-08-15T07:45:07,0,100.0
2023-08-15T08:15:06,0,100.0
2023-08-15T08:45:08,0,100.0
2023-08-15T09:15:10,0,100.0
2023-08-15T09:45:04,0,100.0
2023-08-15T10:15:05,0,100.0
2023-08-15T10:45:07,0,100.0
2023-08-15T11:15:02,0,100.0
2023-08-15T11:45:01,0,100.0
2023-08-15T12:15:08,0,100.0
2023-08-15T12:45:06,0,100.0
2023-08-15T13:15:03,0,100.0
2023-08-15T13:45:07,0,100.0
2023-08-15T14:15:03,0,100.0
2023-08-15T14:45:06,0,100.0
2023-08-15T15:15:05,0,100.0
2023-08-15T15:45:05,0,100.0
2023-08-15T16:15:05,0,100.0
2023-08-15T16:45:09,0,100.0
2023-08-15T17:15:05,0,100.0
2023-08-15T17:45:10,0,100.0
2023-08-15T18:15:03,0,100.0
2023-08-15T18:45:08,0,100.0
2023-08-16T05:15:02,0,100.0
2023-08-16T05:45:05,0,99.94
2023-08-16T06:15:01,0,99.79
2023-08-16T06:45:02,0,99.85
2023-08-16T07:15:09,0,99.96
2023-08-16T07:45:10,0,100.0
2023-08-16T08:15:03,0,100.0
2023-08-16T08:45:03,0,100.0
2023-08-16T09:15:10,0,100.0
2023-08-16T09:45:05,0,100.0
2023-08-16T10:15:07,0,100.0
2023-08-16T10:45:07,0,100.0
2023-08-16T11:15:02,0,100.0
2023-08-16T11:45:05,0,100.0
2023-08-16T12:15:03,0,100.0
2023-08-16T12:45:02,0,100.0
2023-08-16T13:15:01,0,100.0
2023-08-16T13:45:08,0,100.0
2023-08-16T14:15:03,0,100.0
2023-08-16T14:45:04,0,100.0
2023-08-16T15:15:05,0,100.0
2023-08-16T15:45:06,0,100.0
2023-08-16T16:15:11,0,100.0
2023-08-16T16:45:04,0,100.0
2023-08-16T17:15:02,0,100.0
2023-08-16T17:45:03,0,100.0
2023-08-16T18:15:10,0,100.0
2023-08-16T18:45:04,0,100.0
2023-08-17T05:15:04,0,100.0
2023-08-17T05:45:04,0,100.0
2023-08-17T06:15:06,0,100.0
2023-08-17T06:45:06,0,100.0
2023-08-17T07:15:09,0,100.0
2023-08-17T07:45:05,0,100.0
2023-08-17T08:15:09,0,100.0
2023-08-17T08:45:08,0,100.0
2023-08-17T09:15:10,0,100.0
2023-08-17T09:45:03,0,100.0
2023-08-17T10:15:05,0,100.0
2023-08-17T10:45:07,0,100.0
2023-08-17T11:15:06,0,100.0
2023-08-17T11:45:04,0,100.0
2023-08-17T12:15:04,0,100.0
2023-08-17T12:45:05,0,100.0
2023-08-17T13:15:09,0,100.0
2023-08-17T13:45:07,0,100.0
2023-08-17T14:15:06,0,100.0
2023-08-17T14:45:05,0,100.0
2023-08-17T15:15:10,0,100.0
2023-08-17T15:45:05,0,100.0
2023-08-17T16:15:03,0,100.0
2023-08-17T16:45:04,0,100.0
2023-08-17T17:15:01,0,100.0
2023-08-17T17:45:10,0,100.0
2023-08-17T18:15:04,0,100.0
2023-08-17T18:45:01,0,100.0
2023-08-18T05:15:01,0,99.99
2023-08-18T05:45:09,0,100.0
2023-08-18T06:15:06,0,100.0
2023-08-18T06:45:00,0,100.0
2023-08-18T07:15:06,0,100.0
2023-08-18T07:45:01,0,100.0
2023-08-18T08:15:09,0,100.0
2023-08-18T08:45:09,0,100.0
2023-08-18T09:15:08,0,100.0
2023-08-18T09:45:01,0,100.0
2023-08-18T10:15:10,0,100.0
2023-08-18T10:45:02,0,100.0
2023-08-18T11:15:10,0,100.0
2023-08-18T11:45:07,0,100.0
2023-08-18T12:15:02,0,100.0
2023-08-18T12:45:04,0,100.0
2023-08-18T13:15:03,0,100.0
2023-08-18T13:45:06,0,100.0
2023-08-18T14:15:02,0,100.0
2023-08-18T14:45:10,0,100.0
2023-08-18T15:15:06,0,100.0
2023-08-18T15:45:05,0,100.0
2023-08-18T16:15:05,0,100.0
2023-08-18T16:45:08,0,100.0
2023-08-18T17:15:02,0,100.0
2023-08-18T17:45:03,0,100.0
2023-08-18T18:15:01,0,100.0
2023-08-18T18:45:03,0,100.0
2023-08-19T05:15:04,0,100.0
2023-08-19T05:45:05,0,100.0
2023-08-19T06:15:01,0,100.0
2023-08-19T06:45:00,0,100.0
2023-08-19T07:15:06,0,100.0
2023-08-19T07:45:03,0,100.0
2023-08-19T08:15:01,0,100.0
2023-08-19T08:45:03,0,100.0
2023-08-19T09:15:09,0,100.0
2023-08-19T09:45:10,0,100.0
2023-08-19T10:15:06,0,100.0
2023-08-19T10:45:01,0,100.0
2023-08-19T11:15:02,0,100.0
2023-08-19T11:45:08,0,100.0
2023-08-19T12:15:10,0,100.0
2023-08-19T12:45:03,0,100.0
2023-08-19T13:15:03,0,100.0
2023-08-19T13:45:09,0,100.0
2023-08-19T14:15:09,0,100.0
2023-08-19T14:45:08,0,100.0
2023-08-19T15:15:07,0,100.0
2023-08-19T15:45:00,0,100.0
2023-08-19T16:15:10,0,100.0
2023-08-19T16:45:05,0,100.0
2023-08-19T17:15:03,0,100.0
2023-08-19T17:45:10,0,100.0
2023-08-19T18:15:02,0,100.0
2023-08-19T18:45:06,0,100.0
2023-08-20T05:15:01,0,100.0
2023-08-20T05:45:01,0,100.0
2023-08-20T06:15:06,0,99.94
2023-08-20T06:45:07,0,99.96
2023-08-20T07:15:05,0,99.95
2023-08-20T07:45:07,0,100.0
2023-08-20T08:15:03,0,100.0
2023-08-20T08:45:03,0,100.0
2023-08-20T09:15:02,0,100.0
2023-08-20T09:45:03,0,100.0
2023-08-20T10:15:10,0,100.0
2023-08-20T10:45:05,0,100.0
2023-08-20T11:15:07,0,100.0
2023-08-20T11:45:01,0,100.0
2023-08-20T12:15:09,0,100.0
2023-08-20T12:45:03,0,100.0
2023-08-20T13:15:10,0,100.0
2023-08-20T13:45:07,0,100.0
2023-08-20T14:15:10,0,100.0
2023-08-20T14:45:01,0,100.0
2023-08-20T15:15:09,0,100.0
2023-08-20T15:45:10,0,100.0
2023-08-20T16:15:08,0,100.0
2023-08-20T16:45:10,0,100.0
2023-08-20T17:15:06,0,100.0
2023-08-20T17:45:05,0,100.0
2023-08-20T18:15:03,0,100.0
2023-08-20T18:45:00,0,100.0
2023-08-21T05:15:03,0,99.98
2023-08-21T05:45:05,0,99.89
2023-08-21T06:15:10,0,100.0
2023-08-21T06:45:02,0,100.0
2023-08-21T07:15:02,0,100.0
2023-08-21T07:45:04,0,100.0
2023-08-21T08:15:03,0,100.0
2023-08-21T08:45:01,0,100.0
2023-08-21T09:15:06,0,100.0
2023-08-21T09:45:07,0,100.0
2023-08-21T10:15:06,0,100.0
2023-08-21T10:45:10,0,100.0
2023-08-21T11:15:05,0,100.0
2023-08-21T11:45:04,0,100.0
2023-08-21T12:15:06,0,100.0
2023-08-21T12:45:00,0,100.0
2023-08-21T13:15:00,0,100.0
2023-08-21T13:45:05,0,100.0
2023-08-21T14:15:09,0,100.0
2023-08-21T14:45:01,0,100.0
2023-08-21T15:15:08,0,100.0
2023-08-21T15:45:04,0,100.0
2023-08-21T16:15:02,0,100.0
2023-08-21T16:45:03,0,100.0
2023-08-21T17:15:09,0,100.0
2023-08-21T17:45:00,0,100.0
2023-08-21T18:15:08,0,100.0
2023-08-21T18:45:09,0,100.0
2023-08-22T05:15:03,0,99.98
2023-08-22T05:45:01,0,100.0
2023-08-22T06:15:06,0,100.0
2023-08-22T06:45:01,0,100.0
2023-08-22T07:15:05,0,100.0
2023-08-22T07:45:06,0,100.0
2023-08-22T08:15:06,0,100.0
2023-08-22T08:45:00,0,100.0
2023-08-22T09:15:11,0,100.0
2023-08-22T09:45:05,0,100.0
2023-08-22T10:15:01,0,100.0
2023-08-22T10:45:01,0,100.0
2023-08-22T11:15:09,0,100.0
2023-08-22T11:45:01,0,100.0
2023-08-22T12:15:10,0,100.0
2023-08-22T12:45:07,0,100.0
2023-08-22T13:15:04,0,100.0
2023-08-22T13:45:10,0,100.0
2023-08-22T14:15:04,0,100.0
2023-08-22T14:45:03,0,100.0
2023-08-22T15:15:08,0,100.0
2023-08-22T15:45:09,0,100.0
2023-08-22T16:15:05,0,100.0
2023-08-22T16:45:10,0,100.0
2023-08-22T17:15:07,0,100.0
2023-08-22T17:45:01,0,100.0
2023-08-22T18:15:06,0,100.0
2023-08-22T18:45:01,0,100.0
2023-08-23T05:15:07,100,84.46
2023-08-23T05:45:03,100,83.31
2023-08-23T06:15:09,100,81.28
2023-08-23T06:45:04,100,80.12
2023-08-23T07:15:05,100,76.29
2023-08-23T07:45:01,100,71.41
2023-08-23T08:15:10,100,60.98
2023-08-23T08:45:08,100,47.06
2023-08-23T09:15:09,50,56.17
2023-08-23T09:45:08,100,51.68
2023-08-23T10:15:02,50,68.0
2023-08-23T10:45:04,50,77.78
2023-08-23T11:15:04,50,89.89
2023-08-23T11:45:05,50,98.77
2023-08-23T12:15:08,50,99.96
2023-08-23T12:45:07,50,100.0
2023-08-23T13:15:10,50,99.97
2023-08-23T13:45:06,0,65.11
2023-08-23T14:15:01,0,99.82
2023-08-23T14:45:07,0,100.0
2023-08-23T15:15:03,0,100.0
2023-08-23T15:45:04,0,100.0
2023-08-23T16:15:08,0,100.0
2023-08-23T16:45:08,0,100.0
2023-08-23T17:15:05,0,100.0
2023-08-23T17:45:10,0,100.0
2023-08-23T18:15:05,0,100.0
2023-08-23T18:45:08,0,100.0
2023-08-24T05:15:01,0,99.83
2023-08-24T05:45:05,0,100.0
2023-08-24T06:15:09,0,100.0
2023-08-24T06:45:05,0,100.0
2023-08-24T07:15:07,0,100.0
2023-08-24T07:45:02,0,100.0
2023-08-24T08:15:07,0,100.0
2023-08-24T08:45:06,0,100.0
2023-08-24T09:15:01,0,100.0
2023-08-24T09:45:06,0,100.0
2023-08-24T10:15:01,0,100.0
2023-08-24T10:45:03,0,100.0
2023-08-24T11:15:01,0,100.0
2023-08-24T11:45:01,0,100.0
2023-08-24T12:15:05,0,100.0
2023-08-24T12:45:05,0,100.0
2023-08-24T13:15:10,0,100.0
2023-08-24T13:45:01,0,100.0
2023-08-24T14:15:02,0,100.0
2023-08-24T14:45:03,0,100.0
2023-08-24T15:15:04,0,100.0
2023-08-24T15:45:10,0,100.0
2023-08-24T16:15:06,0,100.0
2023-08-24T16:45:05,0,100.0
2023-08-24T17:15:01,0,100.0
2023-08-24T17:45:03,0,100.0
2023-08-24T18:15:06,0,100.0
2023-08-24T18:45:10,0,100.0
2023-08-25T05:15:09,0,95.64
2023-08-25T05:45:10,0,100.0
2023-08-25T06:15:11,0,99.99
2023-08-25T06:45:06,0,100.0
2023-08-25T07:15:02,0,100.0
2023-08-25T07:45:04,0,100.0
2023-08-25T08:15:01,0,100.0
2023-08-25T08:45:01,0,100.0
2023-08-25T09:15:05,0,100.0
2023-08-25T09:45:05,0,100.0
2023-08-25T10:15:06,0,100.0
2023-08-25T10:45:05,0,100.0
2023-08-25T11:15:06,0,99.99
2023-08-25T11:45:10,0,100.0
2023-08-25T12:15:02,0,99.98
2023-08-25T12:45:05,0,100.0
2023-08-25T13:15:04,0,100.0
2023-08-25T13:45:08,0,100.0
2023-08-25T14:15:10,0,100.0
2023-08-25T14:45:10,0,100.0
2023-08-25T15:15:01,0,100.0
2023-08-25T15:45:08,0,100.0
2023-08-25T16:15:06,0,100.0
2023-08-25T16:45:06,0,100.0
2023-08-25T17:15:07,0,100.0
2023-08-25T17:45:07,0,100.0
2023-08-25T18:15:02,0,100.0
2023-08-25T18:45:04,0,100.0
2023-08-26T05:15:07,0,98.62
2023-08-26T05:45:04,0,100.0
2023-08-26T06:15:01,0,100.0
2023-08-26T06:45:05,0,100.0
2023-08-26T07:15:03,0,100.0
2023-08-26T07:45:07,0,100.0
2023-08-26T08:15:01,0,100.0
2023-08-26T08:45:09,0,100.0
2023-08-26T09:15:05,0,100.0
2023-08-26T09:45:07,0,100.0
2023-08-26T10:15:02,0,100.0
2023-08-26T10:45:03,0,100.0
2023-08-26T11:15:01,0,100.0
2023-08-26T11:45:01,0,100.0
2023-08-26T12:15:04,0,100.0
2023-08-26T12:45:06,0,100.0
2023-08-26T13:15:01,0,100.0
2023-08-26T13:45:01,0,100.0
2023-08-26T14:15:02,0,100.0
2023-08-26T14:45:04,0,100.0
2023-08-26T15:15:07,0,100.0
2023-08-26T15:45:10,0,100.0
2023-08-26T16:15:04,0,100.0
2023-08-26T16:45:03,0,100.0
2023-08-26T17:15:04,0,100.0
2023-08-26T17:45:10,0,100.0
2023-08-26T18:15:06,0,100.0
2023-08-26T18:45:03,0,100.0
2023-08-27T05:15:09,0,99.96
2023-08-27T05:45:03,0,100.0
2023-08-27T06:15:05,0,100.0
2023-08-27T06:45:08,0,100.0
2023-08-27T07:15:10,0,100.0
2023-08-27T07:45:05,0,100.0
2023-08-27T08:15:07,0,100.0
2023-08-27T08:45:07,0,100.0
2023-08-27T09:15:01,0,100.0
2023-08-27T09:45:03,0,100.0
2023-08-27T10:15:09,0,100.0
2023-08-27T10:45:07,0,100.0
2023-08-27T11:15:05,0,100.0
2023-08-27T11:45:04,0,100.0
2023-08-27T12:15:02,0,100.0
2023-08-27T12:45:10,0,100.0
2023-08-27T13:15:08,0,100.0
2023-08-27T13:45:05,0,100.0
2023-08-27T14:15:05,0,100.0
2023-08-27T14:45:02,0,100.0
2023-08-27T15:15:09,0,100.0
2023-08-27T15:45:07,0,100.0
2023-08-27T16:15:09,0,100.0
2023-08-27T16:45:03,0,100.0
2023-08-27T17:15:02,0,100.0
2023-08-27T17:45:06,0,100.0
2023-08-27T18:15:03,0,100.0
2023-08-27T18:45:04,0,100.0
2023-08-28T05:15:07,0,99.97
2023-08-28T05:45:02,0,99.99
2023-08-28T06:15:03,0,100.0
2023-08-28T06:45:07,0,100.0
2023-08-28T07:15:08,0,100.0
2023-08-28T07:45:06,0,100.0
2023-08-28T08:15:03,0,100.0
2023-08-28T08:45:01,0,100.0
2023-08-28T09:15:08,0,100.0
2023-08-28T09:45:01,0,100.0
2023-08-28T10:15:01,0,100.0
2023-08-28T10:45:03,0,100.0
2023-08-28T11:15:02,0,100.0
2023-08-28T11:45:01,0,100.0
2023-08-28T12:15:08,0,100.0
2023-08-28T12:45:01,0,100.0
2023-08-29T11:10:17,0,100.0
2023-08-31T11:10:21,0,100.0
2023-09-01T11:10:15,0,100.0
2023-09-02T11:10:22,0,100.0
2023-09-03T11:10:16,0,100.0
2023-09-04T11:10:21,0,99.87
2023-09-05T11:10:13,0,100.0
2023-09-06T11:10:22,0,100.0
2023-09-07T11:10:23,100,82.59
2023-09-08T11:10:14,100,83.68
2023-09-09T11:10:13,0,100.0
2023-09-10T11:10:18,0,100.0
2023-09-11T11:10:15,0,100.0
2023-09-12T11:10:21,0,100.0
2023-09-13T11:10:22,0,100.0
2023-09-14T11:10:17,0,100.0
2023-09-15T11:10:13,0,100.0
2023-09-16T11:10:15,0,100.0
2023-09-17T11:10:15,0,100.0
2023-09-18T11:10:14,0,54.3
2023-09-19T11:10:17,0,100.0
2023-09-20T11:10:18,0,100.0
2023-09-21T11:10:15,100,79.01
2023-09-25T11:10:13,100,58.11
2023-09-26T11:10:13,100,70.64
2023-09-27T11:10:13,100,77.58
2023-09-28T11:10:13,100,78.11
2023-09-29T11:10:17,50,48.88
2023-09-30T11:10:13,50,61.11
2023-10-01T11:10:13,100,57.82
2023-10-02T11:10:13,100,76.41
2023-10-03T11:10:13,100,81.84
2023-10-04T11:10:13,50,49.04
2023-10-05T11:10:13,100,52.95
2023-10-06T11:10:13,100,75.92
2023-10-07T11:10:13,50,56.49
2023-10-08T11:10:21,100,78.02
2023-10-09T11:10:14,100,76.5
2023-10-10T11:10:13,100,82.72
2023-10-11T11:10:21,100,78.23
2023-10-12T11:10:19,100,82.71
2023-10-13T11:10:17,100,84.35
2023-10-14T11:10:15,100,83.25
2023-10-15T11:10:22,100,84.33
2023-10-16T11:10:15,100,68.62
2023-10-17T11:10:17,100,82.62
2023-10-18T11:10:16,100,85.18
2023-10-19T11:10:13,100,82.09
2023-10-20T11:10:21,100,87.18
2023-10-21T11:10:16,100,89.38
2023-10-22T11:10:22,100,89.72
2023-10-23T11:10:20,100,86.66
2023-10-24T11:10:15,100,70.75
2023-10-25T11:10:14,100,72.66
2023-10-26T11:10:20,100,86.86
2023-10-27T11:10:18,100,87.87
2023-10-28T11:10:13,100,84.68
2023-10-29T11:10:13,100,71.91
2023-10-30T11:10:18,100,87.74
2023-10-31T11:10:15,100,84.9
2023-11-01T11:10:17,50,57.69
2023-11-02T11:10:13,100,96.66
2023-11-03T11:10:13,100,94.64
2023-11-04T11:10:14,100,93.18
2023-11-05T11:10:19,100,92.71
2023-11-06T11:10:19,100,93.4
2023-11-07T11:10:15,100,91.87
2023-11-08T11:10:13,100,95.73
2023-11-09T11:10:20,100,81.29
2023-11-10T11:10:17,50,59.25
2023-11-11T11:10:22,50,50.41
2023-11-12T11:10:13,50,64.42
2023-11-13T11:10:19,100,94.82
2023-11-14T11:10:12,100,93.38
2023-11-15T11:10:22,100,94.04
2023-11-16T11:10:19,100,93.42
2023-11-17T11:10:12,100,92.74
2023-11-18T11:10:16,100,90.6
2023-11-19T11:10:18,100,91.22